This demonstration page uses our WeatherBlox Daily Observations layout. Learn more.

Left ArrowRight Arrow

Hourly Observations for September 18, 2022

Temp ( °F °C ) Dew Point ( °F °C ) Humidity (%) Winds ( mph kmh ) Pressure ( in mb ) Visibility ( mi km ) Precip ( " mm )
12:53 am 00:53 Clear 62 16.7 60 15.6 93 93 Calm 30.09 1019 8 13 0.00 0.00
1:53 am 01:53 Clear 60 15.6 58 14.4 93 93 Calm 30.08 1019 9 14 0.00 0.00
2:53 am 02:53 Clear with Mist and Fog 59 15 58 14.4 96 96 Calm 30.08 1019 6 10 0.00 0.00
3:53 am 03:53 Clear with Mist and Fog 57 13.9 56 13.3 96 96 Calm 30.09 1019 4 6 0.00 0.00
4:53 am 04:53 Clear with Mist and Fog 58 14.4 56 13.3 93 93 Calm 30.08 1019 5 8 0.00 0.00
5:16 am 05:16 Clear with Mist and Fog 58 14.4 56 13.3 93 93 Calm 30.09 1019 3 4 0.00 0.00
5:24 am 05:24 Clear with Mist and Fog 58 14.4 56 13.3 93 93 Calm 30.09 1019 4 6 0.00 0.00
5:33 am 05:33 Clear with Mist and Fog 57 13.9 55 12.8 93 93 Calm 30.09 1019 2 3 0.00 0.00
5:38 am 05:38 Clear with Mist and Fog 58 14.4 56 13.3 93 93 Calm 30.09 1019 3 5 0.00 0.00
5:53 am 05:53 Clear with Mist and Fog 57 13.9 56 13.3 96 96 Calm 30.08 1019 2 3 0.00 0.00
5:56 am 05:56 Clear with Mist and Fog 57 13.9 55 12.8 93 93 Calm 30.09 1019 2 2 0.00 0.00
6:04 am 06:04 Clear with Mist and Fog 57 13.9 56 13.3 96 96 Calm 30.10 1019 3 5 0.00 0.00
6:53 am 06:53 Clear with Mist and Fog 58 14.4 56 13.3 93 93 Calm 30.11 1020 4 6 0.00 0.00
7:53 am 07:53 Sunny 57 13.9 54 12.2 89 89 Calm 30.12 1020 8 13 0.00 0.00
8:53 am 08:53 Sunny 66 18.9 63 17.2 90 90 Calm 30.13 1020 8 13 0.00 0.00
9:53 am 09:53 Sunny 71 21.7 63 17.2 76 76 Calm 30.12 1020 10 16 0.00 0.00
10:53 am 10:53 Sunny 76 24.4 63 17.2 64 64 Calm 30.12 1020 10 16 0.00 0.00
11:53 am 11:53 Sunny 79 26.1 63 17.2 58 58 Calm 30.11 1020 10 16 0.00 0.00
12:53 pm 12:53 Sunny 81 27.2 64 17.8 57 57 VRB 5 7 30.09 1019 10 16 0.00 0.00
1:53 pm 13:53 Mostly Sunny 82 27.8 63 17.2 53 53 VRB 6 9 30.07 1018 10 16 0.00 0.00
2:53 pm 14:53 Mostly Sunny 84 28.9 62 16.7 48 48 undefined N/A 30.06 1018 10 16 0.00 0.00
3:53 pm 15:53 Mostly Sunny 84 28.9 62 16.7 48 48 undefined N/A 30.05 1018 10 16 0.00 0.00
4:53 pm 16:53 Mostly Sunny 83 28.3 62 16.7 49 49 VRB 5 7 30.04 1017 10 16 0.00 0.00
5:53 pm 17:53 Sunny 81 27.2 62 16.7 53 53 VRB 6 9 30.02 1017 10 16 0.00 0.00
6:53 pm 18:53 Sunny 78 25.6 61 16.1 56 56 SW 5 7 30.03 1017 10 16 0.00 0.00
7:53 pm 19:53 Clear 71 21.7 64 17.8 79 79 Calm 30.03 1017 10 16 0.00 0.00
8:53 pm 20:53 Clear 71 21.7 62 16.7 73 73 Calm 30.02 1017 10 16 0.00 0.00
9:53 pm 21:53 Clear 71 21.7 62 16.7 73 73 Calm 30.02 1017 10 16 0.00 0.00
10:53 pm 22:53 Clear 67 19.4 62 16.7 84 84 Calm 30.01 1016 10 16 0.00 0.00
11:53 pm 23:53 Clear 66 18.9 62 16.7 87 87 Calm 30.01 1016 10 16 0.00 0.00

Powered by AerisWeather